Flag for Japan Weather past 2 weeks in Nagasaki, Japan

Now
60 °F

Passing clouds.


Feels Like: 60 °F
Forecast: 59 / 77 °F
Wind: 2 mph from Northeast

Location: Nagasaki

Current Time: Oct 25, 2014 at 3:58:31 AM

Latest Report: Oct 25, 2014 at 3:00 AM


Visibility: 13 mi

Pressure: 30.14 "Hg

Humidity: 92%

Dew point: 58 °F

Location of NagasakiLocation

Historic Weather in Nagasaki — Graph

°F

Nagasaki temperature yesterday

Maximum temperature yesterday: 74 °F (at 2:00 PM)
Minimum temperature yesterday: 57 °F (at 3:00 AM)
Average temperature yesterday: 64 °F

Past Weeks' High & Low Weather Summary

 TemperatureHumidityPressure
High85 °F (Oct 10, 3:00 PM)94% (Oct 21, 7:00 PM)30.25 "Hg (Oct 21, 7:00 PM)
Low53 °F (Oct 15, 6:00 AM)38% (Oct 15, 3:00 PM)29.15 "Hg (Oct 13, 9:00 AM)
Average68 °F67%30.01 "Hg
* Reported Oct 10 2:00 AM — Oct 25 2:00 AM, Nagasaki, Weather by CustomWeather, © 2014

Note: Actual official high and low records may vary slightly from our data, if they occured in-between our weather recording intervals... More about our weather records

Advertising

Nagasaki weather history for previous 24 hours

 ConditionsComfort  
Time TempWeatherWind HumidityBarometerVisibility
2:00 AM
Oct 25
60 °FCool.2 mph91%30.15 "HgN/A
1:00 AM61 °FCool.2 mph90%30.15 "HgN/A
12:00 AM61 °FCool.2 mph90%30.14 "HgN/A
11:00 PM
Oct 24
62 °FCool.2 mph88%30.14 "HgN/A
10:00 PM62 °FCool.2 mph86%30.14 "HgN/A
9:00 PM63 °FClear.2 mph85%30.14 "Hg16 mi
8:00 PM64 °FMild.1 mph82%30.13 "HgN/A
7:00 PM65 °FMild.1 mph79%30.11 "HgN/A
6:00 PM68 °FPassing clouds.1 mph72%30.10 "Hg16 mi
5:00 PM70 °FMild.5 mph65%30.09 "HgN/A
4:00 PM71 °FMild.6 mph63%30.09 "HgN/A
3:00 PM74 °FPassing clouds.7 mph59%30.09 "Hg16 mi
2:00 PM74 °FMild.7 mph60%30.09 "HgN/A
1:00 PM72 °FMild.3 mph57%30.10 "HgN/A
12:00 PM71 °FPassing clouds.3 mph59%30.12 "Hg16 mi
11:00 AM69 °FMild.2 mph61%30.15 "HgN/A
10:00 AM66 °FMild.5 mph66%30.15 "HgN/A
9:00 AM63 °FOvercast.5 mph72%30.16 "Hg19 mi
8:00 AM60 °FCool.3 mph78%30.15 "HgN/A
7:00 AM57 °FCool.2 mph82%30.12 "HgN/A
6:00 AM58 °FPassing clouds.2 mph79%30.11 "Hg19 mi
5:00 AM60 °FCool.3 mph76%30.10 "HgN/A
4:00 AM59 °FCool.2 mph75%30.09 "HgN/A
3:00 AM57 °FPassing clouds.3 mph80%30.09 "Hg19 mi
Weather by CustomWeather, © 2014

See weather overviewHow to use our weather pages